Date String (YYYY-MM-DD hh:mm:ss) UTC,Instrument flags,Ambient pressure (hPa),Sample flow (lpm),Bypass flow (lpm),Sample temperature (°C),Ambient temperature (°C),ASC tube jacket temperature (°C),LED temperature (°C),Box temperature (°C),Sample RH (%),Span deviation,Mass concentration (μg/m³),Mass concentration (μg/m³),Mass concentration (μg/m³)
DateTimeUTC,F1_M11,P_M11,Q1_M11,Q2_M11,T1_M11,T2_M11,T3_M11,T4_M11,T5_M11,U1_M11,ZSPAN_M11,X2_M11,X0_M11,X1_M11
2023-03-09 09:00:00,,0822.6,5.00,0.00,22.6,20.8,00.0,31.4,24.2,16.9,-001.3,0010.16,0014.56,0009.86
2023-03-09 09:01:00,,0822.6,5.00,0.00,22.6,20.8,00.0,31.4,24.2,17.0,-001.3,0010.21,0014.61,0009.91
2023-03-09 09:02:00,,0822.6,5.00,0.00,22.6,20.7,00.0,31.4,24.2,17.0,-001.3,0010.31,0015.09,0010.01
2023-03-09 09:03:00,,0822.6,5.00,0.00,22.5,20.8,00.0,31.4,24.2,17.0,-001.3,0010.33,0015.40,0010.05
2023-03-09 09:04:00,,0822.6,5.02,0.00,22.6,21.7,00.0,31.3,24.4,17.0,-001.3,0010.40,0015.48,0010.12
2023-03-09 09:05:00,,0822.6,5.00,0.00,22.7,22.8,00.0,31.3,24.7,16.9,-001.4,0010.47,0015.64,0010.18
2023-03-09 09:06:00,,0822.6,5.01,0.00,22.8,23.3,00.0,31.4,24.8,16.8,-001.4,0010.61,0015.87,0010.32
2023-03-09 09:07:00,,0822.5,5.02,0.00,22.8,22.8,00.0,31.4,24.7,16.8,-001.3,0010.70,0016.00,0010.43
2023-03-09 09:08:00,,0822.5,5.01,0.00,22.8,22.3,00.0,31.4,24.6,16.8,-001.2,0010.79,0016.17,0010.52
2023-03-09 09:09:00,,0822.6,5.00,0.00,22.8,22.0,00.0,31.5,24.6,16.8,-001.2,0010.89,0016.31,0010.61
2023-03-09 09:10:00,,0822.6,5.01,0.00,22.8,21.7,00.0,31.5,24.5,16.8,-001.1,0010.99,0016.45,0010.70
2023-03-09 09:11:00,,0822.6,5.00,0.00,22.8,21.5,00.0,31.5,24.4,16.8,-001.2,0011.06,0016.54,0010.77
2023-03-09 09:12:00,,0822.6,5.00,0.00,22.7,21.3,00.0,31.5,24.4,16.8,-001.1,0011.13,0016.67,0010.81
2023-03-09 09:13:00,,0822.6,5.01,0.00,22.7,21.2,00.0,31.4,24.3,16.9,-001.3,0011.16,0016.38,0010.83
2023-03-09 09:14:00,,0822.6,4.99,0.00,22.7,21.1,00.0,31.4,24.3,16.9,-001.2,0011.27,0016.27,0010.91
2023-03-09 09:15:00,,0822.6,5.00,0.00,22.7,21.0,00.0,31.4,24.3,16.9,-001.2,0011.39,0016.52,0011.00
2023-03-09 09:16:00,,0822.6,4.99,0.00,22.6,20.9,00.0,31.4,24.3,16.9,-001.1,0011.49,0016.68,0011.09
2023-03-09 09:17:00,,0822.6,5.00,0.00,22.6,20.9,00.0,31.4,24.2,17.0,-001.2,0011.54,0016.85,0011.15
2023-03-09 09:18:00,,0822.6,5.01,0.00,22.6,20.8,00.0,31.4,24.2,17.0,-001.1,0011.67,0017.02,0011.27
2023-03-09 09:19:00,,0822.5,5.00,0.00,22.6,20.8,00.0,31.4,24.2,17.9,-001.1,0011.74,0017.12,0011.35
2023-03-09 09:20:00,,0822.5,5.01,0.00,22.5,20.7,00.0,31.3,24.2,18.6,-001.1,0011.90,0017.42,0011.49
2023-03-09 09:21:00,,0822.5,5.00,0.00,22.5,20.7,00.0,31.3,24.2,17.5,-001.1,0012.01,0017.65,0011.59
2023-03-09 09:22:00,,0822.4,5.00,0.00,22.6,21.5,00.0,31.3,24.3,17.3,-001.2,0012.10,0017.81,0011.67
2023-03-09 09:23:00,,0822.5,5.00,0.00,22.7,22.6,00.0,31.3,24.6,17.1,-001.3,0012.18,0017.93,0011.76
2023-03-09 09:24:00,,0822.4,4.98,0.00,22.8,23.2,00.0,31.4,24.7,17.0,-001.1,0012.23,0017.99,0011.82
2023-03-09 09:25:00,,0822.4,5.03,0.00,22.8,22.8,00.0,31.4,24.7,16.9,-001.2,0012.26,0018.05,0011.83
2023-03-09 09:26:00,,0822.4,5.00,0.00,22.8,22.4,00.0,31.4,24.6,16.9,-001.2,0012.29,0018.07,0011.87
2023-03-09 09:27:00,,0822.4,4.99,0.00,22.8,22.0,00.0,31.4,24.5,17.0,-001.0,0012.33,0018.11,0011.90
2023-03-09 09:28:00,,0822.4,4.99,0.00,22.8,21.7,00.0,31.4,24.5,17.0,-000.8,0012.37,0018.07,0011.95
2023-03-09 09:29:00,,0822.4,5.00,0.00,22.7,21.5,00.0,31.4,24.4,17.0,-000.8,0012.36,0018.03,0011.95
2023-03-09 09:30:00,,0822.4,5.00,0.00,22.7,21.3,00.0,31.4,24.4,17.0,-000.9,0012.45,0018.14,0012.04
2023-03-09 09:31:00,,0822.4,5.00,0.00,22.7,21.2,00.0,31.4,24.3,17.0,-000.8,0012.48,0018.15,0012.05
2023-03-09 09:32:00,,0822.4,5.00,0.00,22.7,21.1,00.0,31.4,24.3,17.0,-000.9,0012.49,0018.12,0012.07
2023-03-09 09:33:00,,0822.4,5.00,0.00,22.7,21.0,00.0,31.4,24.3,17.1,-000.8,0012.44,0018.07,0012.05
2023-03-09 09:34:00,,0822.4,5.00,0.00,22.6,20.9,00.0,31.4,24.2,17.1,-000.7,0012.47,0018.13,0012.07
2023-03-09 09:35:00,,0822.4,5.01,0.00,22.6,20.9,00.0,31.4,24.2,17.1,-000.8,0012.57,0018.32,0012.16
2023-03-09 09:36:00,,0822.4,5.00,0.00,22.6,20.8,00.0,31.4,24.2,17.1,-000.7,0012.63,0018.39,0012.23
2023-03-09 09:37:00,,0822.4,5.00,0.00,22.5,20.7,00.0,31.4,24.2,17.2,-000.8,0012.66,0018.45,0012.25
2023-03-09 09:38:00,,0822.4,5.01,0.00,22.5,21.0,00.0,31.3,24.2,17.1,-000.9,0012.67,0018.47,0012.26
2023-03-09 09:39:00,,0822.4,5.02,0.00,22.6,22.0,00.0,31.3,24.5,17.1,-000.9,0012.66,0018.48,0012.26
2023-03-09 09:40:00,,0822.4,5.01,0.00,22.7,23.1,00.0,31.3,24.7,17.0,-000.9,0012.68,0018.59,0012.26
2023-03-09 09:41:00,,0822.5,4.98,0.00,22.8,23.2,00.0,31.4,24.8,16.9,-000.9,0012.67,0018.58,0012.24
2023-03-09 09:42:00,,0822.6,5.03,0.00,22.8,22.7,00.0,31.4,24.7,16.9,-000.9,0012.61,0018.49,0012.20
2023-03-09 09:43:00,,0822.6,5.00,0.00,22.8,22.3,00.0,31.4,24.6,16.9,-000.9,0012.53,0018.36,0012.13
2023-03-09 09:44:00,,0822.6,5.01,0.00,22.8,21.9,00.0,31.4,24.5,16.9,-000.8,0012.53,0018.32,0012.12
2023-03-09 09:45:00,,0822.6,5.00,0.00,22.8,21.7,00.0,31.4,24.5,16.9,-000.7,0012.49,0018.19,0012.07
2023-03-09 09:46:00,,0822.5,5.01,0.00,22.8,21.5,00.0,31.4,24.5,16.9,-000.7,0012.47,0018.15,0012.06
2023-03-09 09:47:00,,0822.6,4.99,0.00,22.7,21.3,00.0,31.4,24.4,16.9,-000.8,0012.50,0018.15,0012.11
2023-03-09 09:48:00,,0822.5,5.00,0.00,22.7,21.1,00.0,31.4,24.4,16.9,-000.8,0012.44,0018.01,0012.07
2023-03-09 09:49:00,,0822.4,5.01,0.00,22.7,21.0,00.0,31.4,24.3,17.0,-000.9,0012.43,0017.95,0012.06
2023-03-09 09:50:00,,0822.4,5.00,0.00,22.6,20.9,00.0,31.4,24.2,17.0,-001.0,0012.51,0018.06,0012.13
2023-03-09 09:51:00,,0822.4,5.00,0.00,22.6,20.8,00.0,31.4,24.3,17.0,-001.0,0012.58,0018.15,0012.18
2023-03-09 09:52:00,,0822.4,5.00,0.00,22.6,20.7,00.0,31.4,24.3,17.0,-000.9,0012.59,0018.15,0012.18
2023-03-09 09:53:00,,0822.4,4.99,0.00,22.6,20.7,00.0,31.4,24.2,17.0,-000.9,0012.66,0018.27,0012.27
2023-03-09 09:54:00,,0822.4,5.00,0.00,22.6,20.7,00.0,31.4,24.2,17.1,-000.8,0012.79,0018.51,0012.39
2023-03-09 09:55:00,,0822.5,4.98,0.00,22.5,20.7,00.0,31.3,24.2,17.1,-000.8,0012.89,0018.64,0012.49
2023-03-09 09:56:00,,0822.5,5.00,0.00,22.5,20.6,00.0,31.3,24.1,17.1,-000.9,0012.98,0018.85,0012.58
2023-03-09 09:57:00,,0822.4,5.01,0.00,22.5,20.8,00.0,31.3,24.2,17.2,-000.8,0013.05,0019.00,0012.66
2023-03-09 09:58:00,,0822.4,5.01,0.00,22.6,21.8,00.0,31.3,24.4,17.1,-000.6,0013.15,0019.20,0012.73
2023-03-09 09:59:00,,0822.4,4.95,0.00,22.7,22.9,00.0,31.3,24.6,17.0,-000.5,0013.37,0019.56,0012.93
